EW5619 Weather Reports


time (UTC)temp
F
wind
direction
speed
knots
gust
knots
rain 1hr
in
rain 24hr
in
rain mn
in
humidity
%
barometer
mb
20260510143602 57 277 5.2 7.8 0.00 0.11 0.11 48 1009.2
20260510142702 57 300 3.5 5.2 0.00 0.11 0.11 53 1009.4
20260510141823 57 282 1.7 1.7 0.00 0.11 0.11 50 1009.2
20260510140923 57 283 3.5 5.2 0.00 0.11 0.11 52 1009.0
20260510140002 56 283 8.7 9.6 0.00 0.11 0.11 55 1009.3
20260510135402 56 285 6.1 9.6 0.00 0.11 0.11 54 1009.2
20260510134523 56 328 1.7 3.5 0.00 0.11 0.11 55 1009.0
20260510133602 55 278 3.5 3.5 0.00 0.11 0.11 58 1008.8
20260510132703 55 263 6.1 9.6 0.00 0.11 0.11 60 1008.8
20260510131802 56 285 2.6 3.5 0.00 0.11 0.11 59 1008.6
20260510130902 55 287 2.6 5.2 0.00 0.11 0.11 63 1008.7
20260510130023 55 281 3.5 8.7 0.00 0.11 0.11 62 1008.6
20260510125402 55 277 6.1 8.7 0.00 0.11 0.11 62 1008.6
20260510124502 54 275 1.7 1.7 0.00 0.11 0.11 67 1008.3
20260510123623 54 289 2.6 3.5 0.00 0.11 0.11 65 1008.2
20260510122703 54 303 1.7 2.6 0.00 0.11 0.11 65 1008.0
20260510121802 54 294 2.6 3.5 0.00 0.11 0.11 65 1008.0
20260510120902 53 292 5.2 7.8 0.00 0.11 0.11 66 1007.9
20260510120002 53 298 1.7 1.7 0.00 0.11 0.11 67 1008.0
20260510115402 52 274 3.5 6.1 0.00 0.11 0.11 66 1007.7
20260510114502 52 290 7.8 12.2 0.00 0.11 0.11 70 1007.6
20260510113623 53 274 2.6 6.1 0.00 0.11 0.11 72 1007.5
20260510112702 53 265 3.5 3.5 0.00 0.11 0.11 73 1007.4
20260510111823 52 267 5.2 6.1 0.00 0.11 0.11 77 1007.5
20260510110923 52 287 2.6 6.1 0.00 0.11 0.11 79 1007.3
20260510110002 52 259 4.3 5.2 0.00 0.11 0.11 82 1006.9
20260510105402 51 270 1.7 3.5 0.01 0.11 0.11 84 1007.1
20260510104502 52 258 3.5 6.1 0.01 0.11 0.11 84 1006.8
20260510103602 51 275 1.7 7.8 0.01 0.11 0.11 84 1006.7
20260510102702 51 265 2.6 3.5 0.01 0.11 0.11 86 1006.3
20260510101802 51 249 0.0 1.7 0.01 0.11 0.11 88 1006.0
20260510100923 51 255 1.7 3.5 0.01 0.11 0.11 90 1006.2
20260510100003 51 249 3.5 6.1 0.01 0.11 0.11 90 1006.2
20260510095402 51 263 0.9 2.6 0.00 0.10 0.10 90 1006.0
20260510094523 52 261 7.8 8.7 0.00 0.10 0.10 90 1006.3
20260510093602 52 267 0.9 0.9 0.00 0.10 0.10 89 1006.0
20260510092702 52 262 3.5 6.1 0.00 0.10 0.10 89 1005.8
20260510091803 51 271 1.7 3.5 0.00 0.10 0.10 90 1005.8
20260510090902 52 249 3.5 3.5 0.00 0.10 0.10 89 1005.6
20260510090002 52 258 5.2 7.8 0.00 0.10 0.10 89 1005.9
20260510085402 52 266 5.2 6.1 0.00 0.10 0.10 89 1005.3
20260510084502 52 251 2.6 6.1 0.00 0.10 0.10 90 1005.6
20260510083602 51 243 0.9 2.6 0.00 0.10 0.10 90 1005.3
20260510082724 52 264 4.3 6.1 0.00 0.10 0.10 89 1005.2
20260510081802 52 264 0.9 5.2 0.00 0.10 0.10 89 1005.2
20260510080902 52 257 1.7 5.2 0.00 0.10 0.10 89 1005.2
20260510080002 52 245 1.7 7.0 0.00 0.10 0.10 89 1005.0
20260510075402 52 259 4.3 6.1 0.00 0.10 0.10 89 1005.0
20260510074502 52 251 1.7 6.1 0.00 0.10 0.10 90 1004.9
20260510073602 52 262 2.6 6.1 0.00 0.10 0.10 90 1004.6
20260510072702 52 249 3.5 8.7 0.00 0.10 0.10 89 1004.7
20260510071803 52 258 1.7 3.5 0.00 0.10 0.10 90 1004.7
20260510070902 52 249 2.6 5.2 0.00 0.10 0.10 90 1004.6
20260510070002 51 288 4.3 6.1 0.00 0.10 0.10 92 1004.7
20260510065403 51 247 1.7 2.6 0.00 0.10 0.10 93 1004.8
20260510064523 50 249 1.7 1.7 0.00 0.10 0.10 93 1004.6
20260510063603 50 231 0.9 1.7 0.00 0.10 0.10 94 1004.6
20260510062723 50 222 0.9 2.6 0.00 0.10 0.10 94 1004.5
20260510061823 50 225 0.9 1.7 0.01 0.10 0.10 94 1004.5
20260510060902 50 282 1.7 3.5 0.02 0.10 0.10 94 1004.5
20260510060002 50 215 0.0 1.7 0.03 0.10 0.10 94 1004.5
20260510055423 50 225 0.9 1.7 0.04 0.10 0.10 94 1004.3
20260510054502 50 190 1.7 2.6 0.05 0.10 0.10 94 1004.3
20260510053624 50 158 0.9 0.9 0.07 0.10 0.10 94 1004.0
20260510052702 49 243 1.7 1.7 0.10 0.10 0.10 93 1004.4
20260510051802 50 147 0.9 1.7 0.09 0.09 0.09 93 1004.8
20260510050902 50 178 0.0 1.7 0.08 0.08 0.08 92 1004.8
20260510050002 50 200 1.7 2.6 0.07 0.07 0.07 91 1004.8
20260510045402 50 283 0.9 3.5 0.06 0.06 0.06 91 1004.6
20260510044502 50 286 2.6 3.5 0.05 0.05 0.05 89 1005.1
20260510043602 51 214 1.7 1.7 0.03 0.03 0.03 86 1005.1
20260510042702 51 232 0.9 1.7 0.00 0.00 0.00 84 1004.7
20260510041802 51 163 0.0 1.7 0.00 0.00 0.00 82 1004.3
20260510040902 51 160 1.7 1.7 0.00 0.00 0.00 81 1003.9
20260510040005 51 145 0.0 0.9 0.00 0.00 0.00 81 1004.0
20260510035402 51 148 0.0 0.0 0.00 0.00 0.00 81 1004.1
20260510034502 51 143 0.9 0.9 0.00 0.00 0.00 81 1003.8
20260510033602 51 172 1.7 3.5 0.00 0.00 0.00 81 1004.1
20260510032702 51 141 0.9 1.7 0.00 0.00 0.00 81 1004.3
20260510031802 51 148 1.7 3.5 0.00 0.00 0.00 81 1004.0
20260510030902 51 176 1.7 2.6 0.00 0.00 0.00 81 1003.9
20260510030002 51 139 1.7 3.5 0.00 0.00 0.00 81 1004.0
20260510025402 51 156 1.7 3.5 0.00 0.00 0.00 81 1004.0
20260510024504 51 190 0.0 0.9 0.00 0.00 0.00 81 1004.0
20260510023602 51 135 0.0 0.9 0.00 0.00 0.00 80 1004.4
20260510022723 52 132 0.0 2.6 0.00 0.00 0.00 79 1004.8
20260510021802 52 149 0.9 1.7 0.00 0.00 0.00 79 1004.8
20260510020902 52 132 0.0 1.7 0.00 0.00 0.00 79 1004.8
20260510020002 52 156 0.0 1.7 0.00 0.00 0.00 79 1004.8
20260510015402 52 141 1.7 1.7 0.00 0.00 0.00 78 1005.0
20260510014502 52 171 0.0 1.7 0.00 0.00 0.00 78 1005.2
20260510013602 52 193 0.0 1.7 0.00 0.00 0.00 79 1005.0
20260510012702 52 123 0.0 0.9 0.00 0.00 0.00 79 1005.1
20260510011802 52 160 1.7 2.6 0.00 0.00 0.00 78 1005.1
20260510010902 52 148 3.5 5.2 0.00 0.00 0.00 78 1005.3
20260510010025 53 138 0.9 1.7 0.00 0.00 0.00 77 1005.1
20260510005423 53 169 1.7 1.7 0.00 0.00 0.00 76 1005.1
20260510004504 53 166 0.9 0.9 0.00 0.00 0.00 76 1004.9
20260510003602 54 147 0.0 0.9 0.00 0.00 0.00 75 1004.7
20260510002702 54 134 1.7 2.6 0.00 0.00 0.00 74 1004.6
20260510001823 54 127 2.6 3.5 0.00 0.00 0.00 74 1004.9
20260510000902 54 165 0.0 0.9 0.00 0.00 0.00 74 1004.6
20260510000023 54 167 0.9 2.6 0.00 0.00 0.00 73 1004.9
20260509235402 54 156 0.9 3.5 0.00 0.00 0.00 73 1004.8
20260509234523 55 130 3.5 5.2 0.00 0.00 0.00 72 1004.3
20260509233602 55 149 1.7 5.2 0.00 0.00 0.00 71 1004.7
20260509232702 56 172 2.6 5.2 0.00 0.00 0.00 70 1004.5
20260509231802 56 131 3.5 7.8 0.00 0.00 0.00 68 1004.7
20260509230902 57 182 1.7 2.6 0.00 0.00 0.00 66 1004.5
20260509230003 58 121 5.2 6.1 0.00 0.00 0.00 65 1004.7
20260509225402 58 146 3.5 5.2 0.00 0.00 0.00 64 1004.4
20260509224502 58 123 1.7 2.6 0.00 0.00 0.00 63 1004.5
20260509223623 59 145 1.7 2.6 0.00 0.00 0.00 61 1004.6
20260509222723 60 166 1.7 2.6 0.00 0.00 0.00 60 1005.0
20260509221802 60 152 0.9 1.7 0.00 0.00 0.00 58 1004.7
20260509220902 60 149 2.6 9.6 0.00 0.00 0.00 57 1004.8
20260509220003 61 113 1.7 7.8 0.00 0.00 0.00 55 1004.9
20260509215402 61 156 3.5 6.1 0.00 0.00 0.00 55 1004.7
20260509214502 61 103 2.6 3.5 0.00 0.00 0.00 54 1004.7
20260509213602 61 136 3.5 7.0 0.00 0.00 0.00 53 1004.9
20260509212702 61 113 1.7 3.5 0.00 0.00 0.00 52 1004.6
20260509211802 62 112 4.3 6.1 0.00 0.00 0.00 51 1004.7
20260509210923 62 121 2.6 5.2 0.00 0.00 0.00 50 1005.0
20260509210003 63 149 3.5 5.2 0.00 0.00 0.00 47 1005.0
20260509205424 64 175 0.9 2.6 0.00 0.00 0.00 47 1005.0
20260509204502 64 180 1.7 5.2 0.00 0.00 0.00 46 1004.9
20260509203602 65 123 6.1 9.6 0.00 0.00 0.00 42 1005.0
20260509202702 65 77 2.6 5.2 0.00 0.00 0.00 38 1005.0
20260509201803 65 126 3.5 5.2 0.00 0.00 0.00 37 1005.0
20260509200902 65 131 2.6 7.8 0.00 0.00 0.00 35 1005.2
20260509200002 66 110 7.0 8.7 0.00 0.00 0.00 34 1005.3
20260509195402 66 141 2.6 5.2 0.00 0.00 0.00 34 1005.3
20260509194502 66 164 1.7 5.2 0.00 0.00 0.00 33 1005.5
20260509193603 66 119 2.6 3.5 0.00 0.00 0.00 31 1005.5
20260509192702 66 137 2.6 6.1 0.00 0.00 0.00 28 1005.6
20260509191802 67 112 1.7 3.5 0.00 0.00 0.00 30 1005.7
20260509190903 67 147 3.5 5.2 0.00 0.00 0.00 28 1005.6
20260509190002 67 231 0.9 8.7 0.00 0.00 0.00 28 1006.0
20260509185402 66 125 1.7 2.6 0.00 0.00 0.00 29 1005.9
20260509184502 67 192 2.6 5.2 0.00 0.00 0.00 27 1006.1
20260509183602 66 110 0.0 2.6 0.00 0.00 0.00 28 1006.3
20260509182702 66 114 1.7 7.0 0.00 0.00 0.00 27 1006.1
20260509181802 66 120 4.3 6.1 0.00 0.00 0.00 25 1006.3
20260509180902 65 145 3.5 6.1 0.00 0.00 0.00 26 1006.4
20260509180003 66 134 3.5 3.5 0.00 0.00 0.00 26 1006.5
20260509175402 66 135 1.7 2.6 0.00 0.00 0.00 26 1006.6
20260509174502 66 119 1.7 7.0 0.00 0.00 0.00 28 1006.5
20260509173604 66 132 5.2 9.6 0.00 0.00 0.00 28 1006.8
20260509172702 65 132 4.3 7.0 0.00 0.00 0.00 27 1007.2
20260509171803 66 132 1.7 2.6 0.00 0.00 0.00 28 1007.5
20260509170902 65 152 0.9 2.6 0.00 0.00 0.00 28 1007.2
20260509170002 65 109 3.5 5.2 0.00 0.00 0.00 27 1007.6
20260509165402 67 128 2.6 5.2 0.00 0.00 0.00 28 1007.7
20260509164503 65 84 1.7 2.6 0.00 0.00 0.00 29 1007.7
20260509163602 65 125 0.9 5.2 0.00 0.00 0.00 28 1007.9
20260509162724 65 120 2.6 5.2 0.00 0.00 0.00 28 1008.1
20260509161802 65 113 1.7 3.5 0.00 0.00 0.00 26 1008.2
20260509160902 65 170 0.9 3.5 0.00 0.00 0.00 28 1008.5
20260509160023 65 146 1.7 5.2 0.00 0.00 0.00 29 1008.7
20260509155402 64 154 1.7 1.7 0.00 0.00 0.00 28 1008.6
20260509154502 64 137 1.7 6.1 0.00 0.00 0.00 29 1008.9
20260509153603 63 135 1.7 5.2 0.00 0.00 0.00 31 1008.9
20260509152702 63 140 1.7 7.8 0.00 0.00 0.00 32 1009.1
20260509151823 62 124 1.7 1.7 0.00 0.00 0.00 32 1009.1
20260509150902 62 132 0.9 2.6 0.00 0.00 0.00 35 1009.4
20260509150003 61 105 2.6 3.5 0.00 0.00 0.00 33 1009.5
20260509145403 59 77 1.7 3.5 0.00 0.00 0.00 41 1009.6
20260509144523 59 87 1.7 3.5 0.00 0.00 0.00 41 1009.7